Weather History for KRYT - December, 2012

Change the Weather History Date:

Monday, December 17, 2012

  Actual Average (KHGR) Record (KHGR)
Temperature  
Mean Temperature 46 °F 33 °F  
Max Temperature 50 °F 41 °F 61 °F (2006)
Min Temperature 42 °F 26 °F 14 °F (2010)
Degree Days  
Heating Degree Days 19 32  
Month to date heating degree days 496  
Since 1 July heating degree days 1501  
Cooling Degree Days 0 0  
Month to date cooling degree days 0  
Year to date cooling degree days 969  
Moisture  
Dew Point 43 °F    
Average Humidity 85    
Maximum Humidity 93    
Minimum Humidity 76    
Precipitation  
Precipitation 0.28 in 0.08 in 0.38 in (2001)
Month to date precipitation 1.70  
Year to date precipitation 38.10  
Sea Level Pressure  
Sea Level Pressure 29.74 in    
Wind  
Wind Speed 0 mph (NE)    
Max Wind Speed 4 mph    
Max Gust Speed -    
Visibility 3 miles    
Events Fog , Rain    
T = Trace of Precipitation, MM = Missing Value Source: NWS Daily Summary

Daily Weather History Graph

Daily Weather History Graph

Search for Another Location

Airport or City:

Trip Planner

Search our weather history database for the weather conditions in past years. The results will help you decide how hot, cold, wet, or windy it might be!

Date:

Astronomy

Dec. 17, 2012 Rise Set
Actual Time 7:25 AM EST 4:47 PM EST
Civil Twilight 6:54 AM EST 5:17 PM EST
Nautical Twilight 6:20 AM EST 5:51 PM EST
Astronomical Twilight 5:48 AM EST 6:24 PM EST
Moon 10:33 AM EST (12/17) 10:05 PM EST (12/17)
Length of Visible Light 10h 22m
Length of Day
9h 21m
Waxing Crescent, 24% of the Moon is Illuminated
Dec 17
Waxing Crescent
Dec 20
First Quarter
Dec 28
Full
Jan 4
Last Quarter
Jan 11
New

Hourly Weather History & Observations

Time (EST) Temp. Dew Point Humidity Pressure Visibility Wind Dir Wind Speed Gust Speed Precip Events Conditions
12:40 AM 46.4 °F 39.2 °F 76% 29.81 in 5.0 mi Calm Calm - N/A   Haze
12:53 AM 46.0 °F 39.9 °F 79% 29.82 in 4.0 mi Calm Calm - N/A   Haze
1:05 AM 44.6 °F 39.2 °F 81% 29.80 in 5.0 mi Calm Calm - N/A   Haze
1:53 AM 45.0 °F 39.9 °F 82% 29.82 in 4.0 mi Calm Calm - N/A   Haze
2:28 AM 44.6 °F 39.2 °F 81% 29.81 in 4.0 mi Calm Calm - N/A   Haze
3:09 AM 44.6 °F 39.2 °F 81% 29.81 in 4.0 mi Calm Calm - N/A   Haze
3:21 AM 44.6 °F 39.2 °F 81% 29.81 in 3.0 mi Calm Calm - N/A   Scattered Clouds
3:29 AM 44.6 °F 39.2 °F 81% 29.81 in 3.0 mi Calm Calm - N/A   Haze
3:53 AM 44.1 °F 39.0 °F 82% 29.82 in 3.0 mi Calm Calm - N/A   Haze
4:22 AM 42.8 °F 39.2 °F 87% 29.80 in 3.0 mi Calm Calm - N/A   Mostly Cloudy
5:53 AM 45.0 °F 39.9 °F 82% 29.81 in 3.0 mi Calm Calm - N/A   Haze
7:22 AM 44.6 °F 41.0 °F 87% 29.81 in 3.0 mi Calm Calm - N/A   Overcast
7:53 AM 46.0 °F 41.0 °F 83% 29.83 in 1.5 mi Calm Calm - N/A   Haze
8:53 AM 46.9 °F 43.0 °F 86% 29.83 in 1.2 mi Calm Calm - N/A   Overcast
9:53 AM 48.0 °F 43.0 °F 83% 29.85 in 2.0 mi Calm Calm - N/A   Haze
10:26 AM 48.2 °F 42.8 °F 82% 29.82 in 3.0 mi Calm Calm - N/A   Haze
10:53 AM 48.9 °F 43.0 °F 80% 29.83 in 5.0 mi Calm Calm - N/A   Haze
11:53 AM 50.0 °F 44.1 °F 80% 29.80 in 5.0 mi Calm Calm - N/A   Haze
1:27 PM 50.0 °F 44.6 °F 82% 29.74 in 5.0 mi NE 3.5 mph - N/A   Haze
1:53 PM 48.9 °F 45.0 °F 86% 29.75 in 2.0 mi Calm Calm - N/A   Overcast
2:01 PM 48.2 °F 44.6 °F 87% 29.73 in 1.2 mi Calm Calm - N/A   Overcast
2:53 PM 48.9 °F 45.0 °F 86% 29.73 in 0.2 mi NE 3.5 mph - N/A Fog Fog
3:53 PM 48.9 °F 45.0 °F 86% 29.71 in 0.2 mi Calm Calm - N/A Fog Fog
4:53 PM 48.0 °F 45.0 °F 89% 29.69 in 0.2 mi Variable 3.5 mph - N/A Fog Fog
7:24 PM 48.2 °F 46.4 °F 93% 29.63 in 1.0 mi Calm Calm - 0.02 in   Mist
7:53 PM 48.9 °F 46.0 °F 90% 29.63 in 1.5 mi Calm Calm - 0.02 in   Overcast
8:25 PM 48.2 °F 46.4 °F 93% 29.60 in 0.8 mi Calm Calm - 0.01 in   Overcast
8:36 PM 48.2 °F 46.4 °F 93% 29.59 in 1.8 mi Calm Calm - 0.02 in Rain Light Rain
8:43 PM 48.2 °F 46.4 °F 93% 29.58 in 2.0 mi Calm Calm - 0.02 in Rain Light Rain
8:53 PM 48.9 °F 45.0 °F 86% 29.59 in 1.8 mi Calm Calm - 0.03 in Rain Light Rain
10:53 PM 48.9 °F 46.0 °F 90% 29.57 in 3.0 mi Calm Calm - 0.18 in Rain Light Rain
11:03 PM 48.2 °F 44.6 °F 87% 29.56 in 3.0 mi Calm Calm - 0.03 in Rain Light Rain
11:53 PM 48.0 °F 45.0 °F 89% 29.53 in 0.5 mi Calm Calm - 0.05 in Fog Fog